Date_and_time,latitude,longitude,wind_speed,RelWindDirFrom,WindDirFrom,air_pressure,air_temperature,relative_humidity,Temp,platform_speed_wrt_ground,air_pressure_at_mean_sea_level,platform_orientation
2018-06-15 00:00,50.9117316666667,-96.9825233333333,9.9,11.7,87,978.49,20.6,70,18.29,0.0,1004.16,90.0
2018-06-15 00:10,50.9117316666667,-96.9825283333333,9.9,11.0,85,978.36,20.5,70,18.28,0.0,1004.03,90.0
2018-06-15 00:20,50.9117316666667,-96.98253,8.8,9.6,85,978.48,20.5,70,18.28,0.0,1004.15,90.0
2018-06-15 00:30,50.9117316666667,-96.9825266666667,6.9,9.0,83,978.74,20.5,71,18.27,0.0,1004.39,90.0
2018-06-15 00:40,50.91174,-96.9825233333333,8.1,13.1,97,978.74,20.4,71,18.27,0.0,1004.37,90.0
2018-06-15 00:50,50.9117383333333,-96.9825166666667,11.5,13.3,102,978.69,20.9,66,18.26,0.0,1004.30,90.0
2018-06-15 01:00,50.9117233333333,-96.9825183333333,11.1,13.4,102,978.71,20.5,70,18.26,0.0,1004.36,360.0
2018-06-15 01:10,50.9117316666667,-96.9825316666667,12.9,14.7,104,978.37,20.4,69,18.26,0.0,1004.00,360.0
2018-06-15 01:20,50.911735,-96.98251,13.1,19.2,111,977.64,20.1,69,18.25,0.0,1003.26,360.0
2018-06-15 01:30,50.911735,-96.9825166666667,17.4,20.6,126,977.43,19.8,68,18.25,0.0,1003.06,360.0
2018-06-15 01:40,50.911735,-96.98252,20.2,23.5,133,977.27,19.9,65,18.27,0.0,1002.90,360.0
2018-06-15 01:50,50.9117316666667,-96.98252,20.3,22.6,133,977.30,20.7,59,18.33,0.0,1002.91,360.0
2018-06-15 02:00,50.9117316666667,-96.9825216666667,15.2,19.7,129,977.79,20.9,58,18.39,0.0,1003.40,90.0
2018-06-15 02:10,50.9117383333333,-96.9825266666667,7.0,12.8,136,978.57,20.6,61,18.42,0.0,1004.22,90.0
2018-06-15 02:20,50.911735,-96.9825233333333,5.0,8.6,145,978.91,20.3,62,18.41,0.0,1004.59,90.0
2018-06-15 02:30,50.91174,-96.9825133333333,9.4,11.5,149,979.07,20.2,63,18.38,0.0,1004.76,90.0
2018-06-15 02:40,50.9117483333333,-96.9825216666667,8.2,11.3,139,978.88,19.9,65,18.36,0.0,1004.56,90.0
2018-06-15 02:50,50.9117433333333,-96.9825216666667,9.1,10.4,164,979.34,19.3,71,18.33,0.0,1005.07,90.0
2018-06-15 03:00,50.9117316666667,-96.9825416666667,10.9,12.9,145,978.90,18.9,73,18.31,0.0,1004.63,270.0
2018-06-15 03:10,50.9117333333333,-96.98254,13.4,19.6,115,978.09,18.7,78,18.29,0.0,1003.83,270.0
2018-06-15 03:20,50.9117316666667,-96.982535,24.0,31.0,131,977.38,18.8,73,18.27,0.0,1003.11,270.0
2018-06-15 03:30,50.9117333333333,-96.9825333333333,21.6,27.9,143,977.17,18.6,76,18.27,0.0,1002.90,270.0
2018-06-15 03:40,50.9117333333333,-96.982535,22.7,27.4,137,976.74,18.6,75,18.26,0.0,1002.42,270.0
2018-06-15 03:50,50.911735,-96.982535,25.4,31.3,134,976.48,18.6,76,18.26,0.0,1002.15,270.0
2018-06-15 04:00,50.9117366666667,-96.9825333333333,25.5,29.6,129,976.12,18.3,77,18.25,0.0,1001.80,324.0
2018-06-15 04:10,50.9117433333333,-96.9825416666667,25.9,30.8,130,975.54,18.4,76,18.25,0.0,1001.21,324.0
2018-06-15 04:20,50.911735,-96.98253,28.5,34.8,132,974.91,18.1,79,18.24,0.0,1000.59,324.0
2018-06-15 04:30,50.9117333333333,-96.9825333333333,29.5,36.5,138,975.07,17.9,82,18.22,0.0,1000.78,324.0
2018-06-15 04:40,50.9117333333333,-96.9825316666667,31.7,37.9,139,975.04,18.0,81,18.21,0.0,1000.76,324.0
2018-06-15 04:50,50.911735,-96.9825316666667,28.2,34.5,135,975.22,18.0,81,18.21,0.0,1000.96,324.0
2018-06-15 05:00,50.9117533333333,-96.98251,25.3,29.3,130,975.31,17.7,84,18.20,0.0,1001.08,360.0
2018-06-15 05:10,50.9117466666667,-96.98253,23.3,28.7,127,975.36,17.5,85,18.17,0.0,1001.14,360.0
2018-06-15 05:20,50.91176,-96.9825283333333,20.9,25.2,120,975.25,17.5,86,18.15,0.0,1001.03,360.0
2018-06-15 05:30,50.9117383333333,-96.9825366666667,18.3,23.2,122,975.23,17.2,89,18.13,0.0,1001.02,360.0
2018-06-15 05:40,50.9117383333333,-96.9825266666667,14.3,17.3,137,975.83,17.2,91,18.11,0.0,1001.64,360.0
2018-06-15 05:50,50.911735,-96.98253,13.4,15.7,142,975.97,17.2,90,18.08,0.0,1001.80,360.0
2018-06-15 06:00,50.9117316666667,-96.9825333333333,12.7,14.5,147,976.17,17.3,89,18.06,0.0,1001.99,90.0
2018-06-15 06:10,50.9117316666667,-96.9825366666667,12.5,15.3,148,976.09,17.4,89,18.05,0.0,1001.92,90.0
2018-06-15 06:20,50.9117316666667,-96.982535,10.6,15.5,158,976.22,17.2,90,18.04,0.0,1002.07,90.0
2018-06-15 06:30,50.9117566666667,-96.982525,13.5,16.9,155,976.25,17.5,89,18.03,0.0,1002.09,90.0
2018-06-15 06:40,50.9117133333333,-96.98253,12.1,15.0,151,976.13,17.4,91,18.03,0.0,1001.97,90.0
2018-06-15 06:50,50.9117216666667,-96.982535,9.3,12.5,151,975.95,17.2,94,18.03,0.0,1001.81,90.0
2018-06-15 07:00,50.911725,-96.9825366666667,7.7,11.8,170,975.89,17.4,93,18.02,0.0,1001.75,360.0
2018-06-15 07:10,50.9117233333333,-96.982535,10.4,14.1,170,975.98,17.7,91,18.01,0.0,1001.83,360.0
2018-06-15 07:20,50.9117233333333,-96.9825333333333,12.0,16.7,166,975.99,17.7,91,18.02,0.0,1001.84,360.0
2018-06-15 07:30,50.9117366666667,-96.9825216666667,14.1,19.7,163,975.89,17.6,92,18.02,0.0,1001.75,360.0
2018-06-15 07:40,50.911725,-96.98252,17.1,21.2,157,975.35,17.5,92,18.01,0.0,1001.20,360.0
2018-06-15 07:50,50.911735,-96.982515,17.6,20.8,142,974.41,17.1,96,18.00,0.0,1000.24,360.0
2018-06-15 08:00,50.911735,-96.9825216666667,13.3,18.1,134,974.14,16.8,99,17.96,0.0,999.98,360.0
2018-06-15 08:10,50.9117316666667,-96.9825216666667,8.9,12.5,140,974.76,16.7,98,17.94,0.0,1000.63,360.0
2018-06-15 08:20,50.9117316666667,-96.9825233333333,9.3,11.9,140,974.84,16.9,96,17.93,0.0,1000.68,360.0
2018-06-15 08:30,50.9117333333333,-96.9825233333333,10.5,13.1,145,975.02,17.0,95,17.93,0.0,1000.87,360.0
2018-06-15 08:40,50.9117333333333,-96.982525,11.2,13.2,137,974.65,16.9,97,17.92,0.0,1000.51,360.0
2018-06-15 08:50,50.911735,-96.982525,8.0,9.9,132,974.57,16.8,98,17.91,0.0,1000.42,360.0
2018-06-15 09:00,50.9117366666667,-96.9825266666667,7.0,8.3,138,974.75,16.8,98,17.90,0.0,1000.59,9.8
2018-06-15 09:10,50.911735,-96.982525,6.3,8.6,155,974.82,16.8,99,17.89,0.0,1000.66,9.8
2018-06-15 09:20,50.911735,-96.9825266666667,5.2,7.3,155,974.76,16.7,99,17.88,0.0,1000.61,9.8
2018-06-15 09:30,50.911735,-96.982525,6.1,8.1,146,974.59,16.6,99,17.88,0.0,1000.44,9.8
2018-06-15 09:40,50.911735,-96.982525,6.1,7.5,144,974.52,16.7,99,17.87,0.0,1000.39,9.8
2018-06-15 09:50,50.911735,-96.982525,6.5,8.0,144,974.74,16.7,99,17.86,0.0,1000.63,9.8
2018-06-15 10:00,50.911735,-96.982525,5.3,6.5,144,974.61,16.7,100,17.86,0.0,1000.50,12.9
2018-06-15 10:10,50.911735,-96.982525,5.1,6.3,151,974.57,16.7,100,17.85,0.0,1000.45,12.9
2018-06-15 10:20,50.9117266666667,-96.98251,5.2,7.5,150,974.70,16.6,100,17.84,0.0,1000.58,12.9
2018-06-15 10:30,50.9117316666667,-96.9825233333333,7.5,8.7,149,974.76,16.6,100,17.82,0.0,1000.65,12.9
2018-06-15 10:40,50.9117283333333,-96.9825233333333,8.6,9.9,150,974.84,16.6,100,17.81,0.0,1000.73,12.9
2018-06-15 10:50,50.9117283333333,-96.9825266666667,11.2,13.6,153,975.15,16.6,100,17.81,0.0,1001.05,12.9
2018-06-15 11:00,50.91173,-96.9825116666667,11.6,14.4,156,975.23,16.5,100,17.80,0.0,1001.13,170.2
2018-06-15 11:10,50.91173,-96.9825166666667,9.1,12.7,165,975.14,16.8,100,17.79,0.0,1001.03,170.2
2018-06-15 11:20,50.9117616666667,-96.9825816666667,6.7,9.5,162,975.04,16.8,100,17.78,0.0,1000.94,170.2
2018-06-15 11:30,50.911735,-96.9825166666667,6.5,8.8,169,974.88,16.8,100,17.78,0.0,1000.77,170.2
2018-06-15 11:40,50.9117333333333,-96.9825233333333,6.8,9.2,163,974.88,16.7,100,17.77,0.0,1000.77,170.2
2018-06-15 11:50,50.9117316666667,-96.9825233333333,6.6,8.6,164,974.85,16.7,100,17.77,0.0,1000.74,170.2
2018-06-15 12:00,50.9117316666667,-96.9825233333333,5.9,7.8,179,974.93,16.8,100,17.77,0.0,1000.82,170.2
2018-06-15 12:10,50.9117316666667,-96.9825233333333,5.5,9.6,189,975.04,17.2,100,17.77,0.0,1000.92,170.2
2018-06-15 12:20,50.9117316666667,-96.98252,3.5,6.6,204,974.95,17.5,100,17.78,0.0,1000.81,170.2
2018-06-15 12:30,50.9117316666667,-96.9825233333333,4.0,7.9,206,974.96,17.8,100,17.78,0.0,1000.82,170.2
2018-06-15 12:40,50.9117316666667,-96.982525,4.6,8.0,203,975.21,18.0,100,17.80,0.0,1001.06,170.2
2018-06-15 12:50,50.9117383333333,-96.982525,4.3,7.7,207,975.33,18.3,99,17.81,0.0,1001.17,170.2
2018-06-15 13:00,50.9117383333333,-96.9825316666667,6.4,10.9,202,975.46,18.5,99,17.83,0.0,1001.29,360.0
2018-06-15 13:10,50.9117466666667,-96.9825316666667,7.4,11.1,200,975.74,18.6,99,17.85,0.0,1001.57,360.0
2018-06-15 13:20,50.9117416666667,-96.982525,5.5,9.8,208,975.81,18.7,99,17.87,0.0,1001.63,360.0
2018-06-15 13:30,50.9117066666667,-96.982495,6.8,11.4,249,975.44,19.0,98,17.89,0.0,1001.25,360.0
2018-06-15 13:40,50.9117333333333,-96.98252,6.7,10.7,246,975.35,19.2,96,17.92,0.0,1001.14,360.0
2018-06-15 13:50,50.9117366666667,-96.9825183333333,5.6,9.8,244,975.37,19.5,94,17.96,0.0,1001.15,360.0
2018-06-15 14:00,50.911735,-96.9825216666667,6.3,11.0,254,975.29,19.7,92,17.99,0.0,1001.04,350.2
2018-06-15 14:10,50.9117333333333,-96.9825083333333,6.1,10.2,250,975.29,19.5,92,18.02,0.0,1001.03,350.2
2018-06-15 14:20,50.911725,-96.982525,5.8,9.0,258,975.21,19.6,92,18.04,0.0,1000.94,350.2
2018-06-15 14:30,50.9117283333333,-96.982525,6.0,9.2,261,975.28,19.7,91,18.07,0.0,1000.99,350.2
2018-06-15 14:40,50.9117283333333,-96.9825233333333,4.1,9.1,246,975.62,20.1,89,18.09,0.0,1001.31,350.2
2018-06-15 14:50,50.9117283333333,-96.982525,2.9,6.7,224,975.85,20.3,87,18.11,0.0,1001.53,350.2
2018-06-15 15:00,50.9117266666667,-96.982525,3.7,8.3,227,975.91,20.7,85,18.12,0.0,1001.57,270.0
2018-06-15 15:10,50.9117266666667,-96.982525,4.1,7.9,207,975.96,21.0,82,18.12,0.0,1001.60,270.0
2018-06-15 15:20,50.9117266666667,-96.9825266666667,3.9,8.9,214,976.13,20.8,81,18.13,0.0,1001.77,270.0
2018-06-15 15:30,50.9117266666667,-96.9825266666667,3.9,7.8,196,976.30,20.9,82,18.13,0.0,1001.93,270.0
2018-06-15 15:40,50.9117266666667,-96.9825266666667,1.5,5.0,229,976.30,20.4,87,18.14,0.0,1001.94,270.0
2018-06-15 15:50,50.9117633333333,-96.9825283333333,3.3,8.1,248,976.31,20.6,86,18.14,0.0,1001.94,270.0
2018-06-15 16:00,50.9117266666667,-96.9825133333333,5.7,10.3,261,976.40,21.1,80,18.15,0.0,1002.02,144.0
2018-06-15 16:10,50.91173,-96.98252,3.0,6.3,239,976.56,21.3,76,18.16,0.0,1002.17,144.0
2018-06-15 16:20,50.9117283333333,-96.9825233333333,4.0,7.9,200,976.66,21.6,74,18.18,0.0,1002.24,144.0
2018-06-15 16:30,50.911705,-96.9825566666667,3.8,6.4,209,976.67,21.5,76,18.19,0.0,1002.24,144.0
2018-06-15 16:40,50.9117166666667,-96.98253,4.4,7.5,234,976.65,21.7,76,18.20,0.0,1002.21,144.0
2018-06-15 16:50,50.9117183333333,-96.9825216666667,3.6,7.2,217,976.68,22.0,76,18.22,0.0,1002.21,144.0
2018-06-15 17:00,50.911735,-96.982515,4.0,9.0,221,976.68,22.3,74,18.25,0.0,1002.18,90.0
2018-06-15 17:10,50.9117383333333,-96.98252,4.2,8.7,210,976.60,23.0,70,18.29,0.0,1002.08,90.0
2018-06-15 17:20,50.9117333333333,-96.9825216666667,3.6,8.3,217,976.64,23.1,70,18.34,0.0,1002.11,90.0
2018-06-15 17:30,50.9117333333333,-96.9825233333333,2.8,7.5,216,976.62,23.8,67,18.41,0.0,1002.09,90.0
2018-06-15 17:40,50.9117433333333,-96.9825466666667,4.4,9.7,225,976.64,23.6,65,18.49,0.0,1002.10,90.0
2018-06-15 17:50,50.9117383333333,-96.9825366666667,2.6,7.8,190,976.60,24.2,63,18.56,0.0,1002.02,90.0
2018-06-15 18:00,50.9117316666667,-96.9825283333333,4.9,9.3,146,976.52,22.3,73,18.62,0.0,1002.01,90.0
2018-06-15 18:10,50.9117316666667,-96.9825333333333,6.5,10.7,140,976.49,22.3,73,18.65,0.0,1001.96,90.0
2018-06-15 18:20,50.9117316666667,-96.98253,10.9,12.1,137,976.46,20.4,88,18.68,0.0,1002.02,90.0
2018-06-15 18:30,50.9117316666667,-96.98253,9.9,12.9,132,976.48,20.1,90,18.68,0.0,1002.04,90.0
2018-06-15 18:40,50.9117283333333,-96.9825283333333,11.9,13.9,138,976.46,19.8,94,18.67,0.0,1002.02,90.0
2018-06-15 18:50,50.9117283333333,-96.982525,12.5,15.8,144,976.42,19.5,97,18.66,0.0,1001.99,90.0
2018-06-15 19:00,50.9117383333333,-96.9825533333333,12.8,15.1,145,976.44,19.7,96,18.66,0.0,1001.96,292.9
2018-06-15 19:10,50.911725,-96.982525,13.4,16.7,144,976.37,19.8,94,18.67,0.0,1001.88,292.9
2018-06-15 19:20,50.9117283333333,-96.9825216666667,14.0,18.4,146,976.36,20.3,89,18.71,0.0,1001.82,292.9
2018-06-15 19:30,50.911715,-96.98251,11.9,15.3,149,976.38,20.7,85,18.76,0.0,1001.83,292.9
2018-06-15 19:40,50.9117266666667,-96.98252,11.3,16.0,144,976.30,20.7,83,18.81,0.0,1001.72,292.9
2018-06-15 19:50,50.91173,-96.98256,6.0,11.7,243,976.42,23.1,60,18.84,0.0,1001.82,292.9
2018-06-15 20:00,50.91171,-96.9824933333333,7.0,14.0,249,976.48,25.3,49,18.88,0.0,1001.78,153.7
2018-06-15 20:10,50.911715,-96.9825166666667,8.0,13.7,249,976.48,26.0,45,18.94,0.0,1001.84,153.7
2018-06-15 20:20,50.91173,-96.98254,9.1,15.9,245,976.53,26.5,40,19.02,0.0,1001.89,153.7
2018-06-15 20:30,50.9117266666667,-96.982525,9.8,16.9,256,976.50,26.7,39,19.12,0.0,1001.86,153.7
2018-06-15 20:40,50.9117266666667,-96.98252,9.4,14.2,251,976.58,26.6,39,19.24,0.0,1001.96,153.7
2018-06-15 20:50,50.911725,-96.98252,7.0,16.9,235,976.68,26.5,39,19.35,0.0,1002.06,153.7
2018-06-15 21:00,50.9117283333333,-96.982515,7.4,15.5,257,976.64,27.0,37,19.41,0.0,1001.98,90.0
2018-06-15 21:10,50.9117316666667,-96.98253,7.0,14.1,247,976.70,26.8,35,19.49,0.0,1002.04,90.0
2018-06-15 21:20,50.9117333333333,-96.9825216666667,8.9,13.1,271,976.59,26.8,35,19.55,0.0,1001.90,90.0
2018-06-15 21:30,50.911735,-96.982525,8.3,13.3,247,976.68,27.0,35,19.61,0.0,1002.00,90.0
2018-06-15 21:40,50.9117333333333,-96.982525,5.8,13.6,243,976.76,26.9,35,19.67,0.0,1001.98,90.0
2018-06-15 21:50,50.9117333333333,-96.9825266666667,6.3,11.3,252,976.80,27.1,34,19.70,0.0,1001.92,90.0
2018-06-15 22:00,50.9117333333333,-96.9825283333333,6.1,10.8,255,976.91,27.2,34,19.75,0.0,1001.99,125.8
2018-06-15 22:10,50.9117316666667,-96.9825266666667,6.1,9.5,260,976.97,26.1,34,19.77,0.0,1002.08,125.8
2018-06-15 22:20,50.9117233333333,-96.9825283333333,5.4,10.9,263,977.04,26.4,35,19.76,0.0,1002.13,125.8
2018-06-15 22:30,50.911725,-96.98253,8.5,13.9,267,977.04,26.1,36,19.77,0.0,1002.15,125.8
2018-06-15 22:40,50.9117233333333,-96.9825333333333,4.2,7.6,251,977.14,26.2,35,19.78,0.0,1002.25,125.8
2018-06-15 22:50,50.911725,-96.9825316666667,6.6,12.0,262,977.02,26.6,34,19.78,0.0,1002.09,125.8
2018-06-15 23:00,50.9117266666667,-96.98253,6.4,9.7,295,977.07,26.3,35,19.79,0.0,1002.16,316.8
2018-06-15 23:10,50.9117283333333,-96.9825333333333,4.3,7.0,277,977.15,26.1,36,19.78,0.0,1002.25,316.8
2018-06-15 23:20,50.9117283333333,-96.9825333333333,4.4,9.8,255,977.28,26.3,35,19.78,0.0,1002.37,316.8
2018-06-15 23:30,50.9117283333333,-96.982535,5.1,8.9,258,977.33,25.5,35,19.78,0.0,1002.45,316.8
2018-06-15 23:40,50.9117216666667,-96.9825166666667,5.1,9.4,255,977.38,25.4,35,19.76,0.0,1002.51,316.8
